Погода в Бахердене

Погода в Бахердене : погода сейчас, прогноз погоды и архив. Всё, что Вы хотите узнать о погоде в Бахердене!

Поиск расширенной информации на нашем сайте:

Другие новости

Новости СМИ2

Главная страница сайта

Новости сайта

03.07.2017

Напоминаем, что на нашем специализированном сайте Метеоцентр.Азия вы можете получить высокодетализированные автоматические прогнозы погоды по пунктам России, СНГ и мира в авиационном формате (включающие направление и скорость ветра, видимость, явления погоды, количество и форму облачности, нижнюю и верхнюю границу облачности).

Рекомендуем: Прямо на сайте экспресс заказ пазла, подробности на сайте.

Погода в Бахердене - сегодня

Время (UTC), дата Ветер
(°,м/с) 
Видим.   Явления Облачность Т
(°С)
Тd
(°С)
f(%) Тe
(°С)
Pmin
(гПа)
dP
(гПа)
Po
(мм)
O2
(г/м3)
Тmin Tmax R s Состояние
почвы
21 23.05.18 120 (ЮВ) 10 км    ясно 
+27 +12.2 40 +31  1018  0.6  750  273           
00 24.05.18 180 (Ю) 10 км    ясно 
+21.5 +14.5 64 +29  1017.8  -0.4  749  277           
03 24.05.18 140 (ЮВ) 20000 м    ясно 
+24.1 +11.1 44 +27  1017.4  -0.3  751  276           
06 24.05.18 110 (В) 20000 м    ясно 
+29.2 +14.1 40 +36  1016.9  -0.3  749  270  +21.1         
09 24.05.18 тихо ()   20000 м    ясно 
+33.8 +12 27 +38  1016.5  -0.5  749  266           
12 24.05.18 130 (ЮВ) 20000 м    ясно 
+34.5 +11.2 24 +37  1012.3  -3.4  746  265           
15 24.05.18 тихо ()   20000 м    ясно 
+32.4 +15 35 +41  1012.7  0.3  746  266    +34.7       
18 24.05.18 тихо ()   2000 м    ясно 
+26.7 +12.8 42 +32  1013.2  0.1  746  271    +34.7       
21 24.05.18 тихо ()   10 км    ясно 
+22.9 +9.9 44 +24  1013.1  -0.3  746  276           
00 25.05.18 тихо ()   2000 м    ясно 
+20.9 +10.6 52 +23  1013.2  -0.1  746  277           
03 25.05.18 160 (Ю) 20000 м    ясно 
+22.2 +8.6 42 +22  1012.4  -0.6  751  278           
06 25.05.18 080 (В) 20000 м    ясно 
+31.8 +12.9 32 +37  1012  0.2  746  267  +20.5         
09 25.05.18 090 (В) 20000 м    ясно 
+35.1 +11.3 24 +38  1009.4  -2.4  744  264           
12 25.05.18 150 (ЮВ) 20000 м    ясно 
+36.8 +12.9 24 +42  1018.8  -0.5  743  262           
15 25.05.18 130 (ЮВ) 20000 м    ясно 
+33 +13.6 31 +40  1007.6  -1.4  742  264    +37       
18 25.05.18 тихо ()   10 км    ясно 
+27.5 +16 50 +38  1009.1  1.1  743  269    +37       
21 25.05.18 тихо ()   10 км    ясно 
+26 +10.3 37 +28  1007.4  -1.7  742  271           
00 26.05.18 тихо ()   10 км    ясно 
+24.6 +9.2 38 +25  1006.1  -1.4  741  272           
03 26.05.18 320 (СЗ) 20000 м    4/0 верхняя 
[Cs]
+28.4 +8.9 29 +28  1007.4  1.5  741  269           
06 26.05.18 340 (С) 20000 м    ясно 
+32.8 +9.8 24 +34  1007.1  742  265  +24.3         
09 26.05.18 070 (В) 20000 м    ясно 
+37.1 +15.7 28 +47  1005.6  -1.2  741  260           
12 26.05.18 340 (С) 20000 м    4/4 600 м 
[Cu med, cong]
+38.9 +15.3 25 +48  1004.5  -1.1  740  258           
15 26.05.18 300 (СЗ) 20000 м    ясно 
+35.3 +15.7 31 +46  1004.7  -0.1  740  261    +39.1       
18 26.05.18 330 (СЗ) 2000 м    ясно 
+31.7 +13 32 +37  1007.5  2.6  742  266    +39.1       
21 26.05.18 310 (СЗ) 2000 м    8/8 2000 м средняя 
[Ac cast]
+27.6 +14.7 45 +36  1009.6  1.8  744  269           
Время (UTC), дата Ветер
(°,м/с) 
Видим.   Явления Облачность Т
(°С)
Тd
(°С)
f(%) Тe
(°С)
Pmin
(гПа)
dP
(гПа)
Po
(мм)
O2
(г/м3)
Тmin Tmax R s Состояние
почвы

Для получения пояснительной информации подведите курсор к названию столбца.

ПОГОДА в Бахердене - архив

Всё, что Вы хотите узнать о погоде в Бахердене - удобно и подробно!

Выберите нужную дату (начиная с 1 января 2015* года) и нажмите кнопку "Найти".
Будут отображены архивные сводки погоды по пункту Бахерден, начиная с указанной даты.


Отображать данные в формате CSV (для использования в таблицах Excel)


Внимание! Наш архив погоды предназначен исключительно для личного некоммерческого использования в познавательных целях. Если Вам необходимы официальные справки о состоянии погоды (для производственных, юридических, коммерческих и т.п. целей), обращайтесь в органы Росгидромета.

*Примечание: данная дата относится к архиву по метеостанциям СССР (Россия, СНГ, Балтия).
Архив по метеостанциям Зарубежной Европы и Азии (кроме Китая) хранится 10 дней, по другим регионам земного шара (Китай, Африка, Америка, Австралия, Океания) - 1 день.

Бахерден - район местоположения метеостанции


Название, широта, долгота, высота метеостанции:
Бахерден 38.4°ш. 57.4°д. 159 м над ур. моря [Туркменистан]

Дополнительная информация

В oтличие oт бoльшинства пoгoдных сайтoв мы публикуем пoдрoбную метеoинфoрмацию в детальнoм прoфессиoнальнoм фoрмате.

Характеристики температуры и влажнoсти вoздуха измеряются на высoте 2 м в тени вдали oт зданий и деревьев.
Скoрoсть ветра измеряется на высoте 10 м (на урoвне рoста челoвека скoрoсть ветра ниже в 1.5-2 раза). Если метеoстанция нахoдится в гoрoде или в лесу, тo скoрoсть ветра занижена на 2-4 м/с пo сравнению с oткрытым местoм. Скoрoсть ветра над акватoриями крупных рек и oзёр, а также на вершинах хoлмoв на 2-5 м/с выше, чем в oбычных услoвиях.
Атмoсфернoе давление в разных тoчках местнoсти мoжет значительнo oтличаться oт давления на метеoстанции, в зависимoсти oт услoвий рельефа (при пoдъёме на 10 м давление пoнижается примернo на 1 мм рт.ст.).